Regional Weather Roundup
Issued by NWS Sioux Falls, SD

Home | Current Version | Previous Version | Graphics & Text | Print | Product List | Glossary Off
Versions: 1 2 3 4 5 6 7 8 9 10 11 12 13 14 15 16 17 18 19 20 21 22 23 24 25 26 27 28 29 30 31 32 33 34 35 36 37 38 39 40 41 42 43 44 45 46 47 48 49 50

575
ASUS43 KFSD 241010
RWRFSD

WEATHER ROUNDUP FOR SE SOUTH DAKOTA/SW MINNESOTA/NW IOWA
NATIONAL WEATHER SERVICE SIOUX FALLS SD
500 AM CDT SUN JUL 24 2016

NOTE: "FAIR" INDICATES FEW OR NO CLOUDS BELOW 12,000 FEET WITH NO
SIGNIFICANT WEATHER AND OR OBSTRUCTIONS TO VISIBILITY.


SDZ038>040-050-052>070-241100-
SOUTHEAST SOUTH DAKOTA

CITY           SKY/WX    TMP DP  RH WIND       PRES   REMARKS
BROOKINGS      CLEAR     66  65  96 NW5       29.91S FOG
CHAMBERLAIN    PTCLDY    70  63  78 N12       29.95F
HURON          CLEAR     62  59  90 NW10      29.93S
MADISON        FAIR      64  64 100 NW8       29.93S
MITCHELL       CLEAR     66  63  90 W7        29.93S
SIOUX FALLS    PTCLDY    68  65  90 NW5       29.90S
WINNER         FAIR      67  56  67 W8        29.98R
YANKTON        PTCLDY    70  64  83 NW5       29.91S
$$

MNZ071-072-080-081-089-090-097-098-241100-
SOUTHWEST MINNESOTA

CITY           SKY/WX    TMP DP  RH WIND       PRES   REMARKS
FAIRMONT       CLEAR     75  50  41 NW14      29.82R
JACKSON        CLEAR     73  66  78 NW12G17   29.87R
LUVERNE        CLEAR     66  63  88 CALM      29.90S
MARSHALL       CLEAR     67  65  93 W8        29.87R
MONTEVIDEO     CLEAR     70  68  94 NW7       29.86S
REDWOOD FALLS  CLEAR     71  68  90 NW8       29.83R
TRACY          CLEAR     70  67  92 W6        29.87S
WINDOM         CLEAR     72  66  83 NW10      29.86R
WORTHINGTON    CLEAR     70  66  87 NW10      29.89S
$$

IAZ001>003-012>014-020>022-031-032-NEZ013-014-SDZ071-241100-
NORTHWEST IOWA

CITY           SKY/WX    TMP DP  RH WIND       PRES   REMARKS
CHEROKEE       CLEAR     75  73  93 N8        29.87R
DENISON        MOCLDY    77  75  94 NW5       29.83S
ESTHERVILLE    CLEAR     73  70  90 NW10      29.84S
LE MARS        CLEAR     73  68  83 N8        29.89S
SHELDON        CLEAR     70  70 100 N5        29.87S
SIOUX CITY     CLEAR     78  66  66 N16       29.87R
SPENCER        CLEAR     74  69  85 NW9       29.86R
STORM LAKE     CLEAR     75  73  94 N13       29.87R
$$

ABBREVIATIONS USED IN REMARKS
   TC - TEMPERATURE IN CELSIUS
  WCI - WIND CHILL INDEX
   HX - HEAT INDEX
  VSB - VISIBILITY





USA.gov is the U.S. government's official web portal to all federal, state and local government web resources and services.